[[{"header":{"parameterUnit":"m.s-1","parameterCategory":1,"la1":30.2991,"la2":30.254,"lo1":-89.0895,"lo2":-89.0444,"dy":0.0017,"dx":0.0017,"nx":28,"ny":28,"refTime":"2024-07-24T09:00:00:Z","depth":0,"parameterNumber":2,"parameterNumberName":"U-component_of_WINDS"},"data":[0,0,0,0,0,0,0,0,0,0,0,0,0,0,0,0,0,0,0,0,0,0,0,0,0,0,0,0,0,0,0,0,0,0,0,0,0,0,0,0,0,0,0,0,0,0,0,0,0,0,0,0,0,0,0,0,0,0,0.9198,0.92,0,0.9472,0.9475,0.9478,0.9602,0.9602,0.9602,0.9601,0.9875,0.9883,0.989,0,0,0,0,0,0,0,0,0,0,0,0,0,0.8778,0.8785,0.9197,0.9201,0.9204,0.9471,0.9475,0.9479,0.9602,0.9602,0.9602,0.9601,0.9873,0.9882,0.9891,0,0,0,0,0,0,0,0,0,0,0,0,0,0.8996,0.8787,0.9197,0.9298,0.931,0.947,0.9475,0.948,0.9602,0.9602,0.9601,0.9601,0.987,0.9881,0.9892,0.997,0,0,0.9927,0.9932,0,0,0,0,0,0,0,0,0.8984,0.9011,0.928,0.9292,0.9305,0.9503,0.9428,0.9644,0.9602,0.9491,0.9601,0.9601,0.9751,0.9772,0.9824,0.9983,0.9995,0.9928,0.9935,0.9939,0.9943,0,0,0,0,0,0,0,0.8968,0.9,0.9306,0.9284,0.9299,0.9329,0.936,0.9469,0.962,0.9501,0.951,0.9542,0.9758,0.9813,0.9832,0.9999,0.9927,0.9937,0.9944,0.9949,1.0238,1.0239,0,0,0,0,0,0,0.8937,0.8987,0.9297,0.9314,0.914,0.9337,0.9371,0.9439,0.9619,0.9646,0.9542,0.9546,0.9794,0.9818,0.9842,0.9947,0.9939,0.995,0.9957,1.0237,1.0239,1.0239,0,0,0,0,0,0,0.8928,0.8964,0.9286,0.9153,0.9197,0.9345,0.942,0.9445,0.95,0.965,0.9677,0.9571,0.9795,0.9826,0.9939,0.9958,0.9955,0.9965,1.0236,1.0238,1.0239,1.0156,0,0,0,0,0,0,0.8915,0.896,0.8991,0.9153,0.9203,0.9379,0.9421,0.9451,0.952,0.9529,0.9684,0.971,0.9797,0.9921,0.995,0.9974,0.9974,1.0235,1.0237,1.0239,1.0158,1.0155,1.0152,0,0,0,0,0,0.89,0.8955,0.8992,0.9029,0.9246,0.938,0.9408,0.9509,0.9521,0.9554,0.9651,0.9705,0.9952,0.9931,0.9965,0.9992,1.0234,1.0236,1.0238,1.0159,1.0155,1.0152,0,0,0,0,0,0,0.8788,0.8978,0.9021,0.9131,0.9238,0.94,0.9445,0.9501,0.9606,0.9609,0.9729,0.9763,0.9865,0.994,0.9914,1.0079,1.0098,1.0107,1.0026,1.0024,1.0021,1.0,0.9984,0,0,0,0,0,0.8777,0.8871,0.9031,0.9112,0.9164,0.9295,0.9357,0.9426,0.9541,0.9587,0.9692,0.98,0.9903,0.9967,1.007,1.017,1.0206,1.0206,1.0202,1.0199,1.0205,1.0266,1.0268,1.0246,1.0246,1.0246,0,0,0.8753,0.8868,0.892,0.9092,0.9184,0.9278,0.9332,0.9428,0.9499,0.9601,0.9715,0.9795,0.9925,1.0032,1.0084,1.0098,1.022,1.0202,1.0198,1.0206,1.0268,1.027,1.0272,1.0248,1.0247,1.0247,0,0,0.8758,0.8855,0.8934,0.9026,0.9166,0.9253,0.9272,0.9427,0.9485,0.9602,0.9681,0.9766,0.994,1.003,1.0098,1.0141,1.0195,1.0171,1.0155,1.0213,1.0215,1.0217,1.0233,1.0238,1.0177,1.0177,1.0176,0,0.871,0.8857,0.8967,0.9061,0.9135,0.9235,0.9316,0.9399,0.9563,0.9612,0.9625,0.9848,0.9941,1.0073,1.0084,1.0135,1.0161,1.0153,1.0206,1.0209,1.0213,1.023,1.0236,1.0173,1.0173,1.0174,1.0174,0,0.8792,0.8893,0.894,0.91,0.918,0.9266,0.9389,0.9456,0.9519,0.9605,0.9723,0.984,0.9969,1.0006,1.0066,1.0146,1.0151,1.0183,1.0204,1.0209,1.0227,1.0235,1.0168,1.0169,1.017,1.0171,0,0,0.8732,0.8955,0.8971,0.9046,0.9209,0.9288,0.938,0.9509,0.9565,0.9676,0.9756,0.9902,0.9935,1.0012,1.0085,1.0135,1.0165,1.0163,1.0168,1.016,1.0262,1.0236,1.0242,1.0202,1.0204,1.0205,1.0251,0,0.876,0.8931,0.9035,0.9163,0.9258,0.9356,0.9437,0.9545,0.9628,0.972,0.9811,0.9914,0.9949,0.9997,1.0052,1.0149,1.0187,1.0148,1.0277,1.028,1.0241,1.0251,1.0224,1.0261,1.0259,1.026,1.0261,0,0.8815,0.8927,0.9066,0.9222,0.9265,0.9336,0.9464,0.9551,0.9676,0.9734,0.9822,0.9896,0.9997,1.0011,1.0152,1.0123,1.0182,1.0239,1.0243,1.0258,1.027,1.0267,1.0275,1.0281,1.0273,1.0272,1.0271,0,0.8758,0.8944,0.9052,0.9113,0.9297,0.9344,0.9423,0.9548,0.962,0.9732,0.978,0.9901,0.9967,1.0059,1.0163,1.0164,1.0294,1.0316,1.0344,1.0341,1.0366,1.0363,1.0384,1.0404,1.0404,1.0404,1.0404,0,0.8778,0.8859,0.9029,0.9095,0.919,0.9309,0.9398,0.9485,0.9596,0.9681,0.9772,0.9849,0.9983,1.0076,1.0158,1.0263,1.0292,1.0341,1.0362,1.0333,1.0327,1.0373,1.0373,1.0405,1.0405,1.0405,1.0404,0,0.873,0.8847,0.8972,0.9137,0.9181,0.9243,0.9384,0.9452,0.9542,0.9648,0.968,0.982,0.9935,1.0049,1.0203,1.0258,1.0362,1.039,1.032,1.0332,1.0354,1.035,1.0405,1.0419,1.0428,1.0428,1.0428,0,0.8735,0.88,0.8974,0.9039,0.9116,0.9218,0.9294,0.9414,0.9488,0.9638,0.9688,0.9811,0.9915,1.0095,1.0209,1.0328,1.036,1.0371,1.0378,1.0348,1.0361,1.0356,1.0364,1.0367,1.0366,1.0366,1.0365,0,0.8732,0.8788,0.8894,0.9021,0.9109,0.9214,0.9323,0.937,0.9511,0.959,0.9711,0.9792,0.9952,1.0073,1.0206,1.0286,1.0349,1.0363,1.0376,1.0347,1.0304,1.0328,1.0311,1.0361,1.0361,1.0361,1.0362,1.0362,0.8711,0.8775,0.8908,0.9024,0.9119,0.922,0.9293,0.9393,0.9497,0.9638,0.9702,0.9824,0.995,1.0136,1.0216,1.0312,1.0328,1.0346,1.0351,1.0354,1.0348,1.0289,1.0337,1.0337,1.0337,1.0337,1.0338,0,0.8713,0.8805,0.8911,0.9062,0.9153,0.9208,0.9332,0.9404,0.9511,0.9625,0.9727,0.9867,0.9986,1.0111,1.0237,1.029,1.0323,1.0319,1.0316,1.0334,1.0326,1.0302,1.0291,1.0291,1.0291,1.0291,1.0291,1.0291,0.8725,0.8837,0.8909,0.9069,0.9161,0.9282,0.9349,0.9442,0.9534,0.9686,0.9787,0.9869,0.9988,1.0124,1.0236,1.027,1.0312,1.03,1.0342,1.0331,1.0334,1.0337,1.0316,1.0308,1.0308,1.0343,1.0343,1.0343]},{"header":{"parameterUnit":"m.s-1","parameterCategory":1,"la1":30.2991,"la2":30.254,"lo1":-89.0895,"lo2":-89.0444,"dy":0.0017,"dx":0.0017,"nx":28,"ny":28,"refTime":"2024-07-24T09:00:00:Z","depth":0,"parameterNumber":3,"parameterNumberName":"V-component_of_WINDS"},"data":[0,0,0,0,0,0,0,0,0,0,0,0,0,0,0,0,0,0,0,0,0,0,0,0,0,0,0,0,0,0,0,0,0,0,0,0,0,0,0,0,0,0,0,0,0,0,0,0,0,0,0,0,0,0,0,0,0,0,-3.7003,-3.7002,0,-3.6926,-3.6925,-3.6924,-3.6814,-3.6812,-3.681,-3.6808,-3.6728,-3.6728,-3.6727,0,0,0,0,0,0,0,0,0,0,0,0,0,-3.7052,-3.7052,-3.7003,-3.7002,-3.7001,-3.6926,-3.6925,-3.6924,-3.6814,-3.6812,-3.681,-3.6808,-3.6728,-3.6728,-3.6727,0,0,0,0,0,0,0,0,0,0,0,0,0,-3.7008,-3.7052,-3.7004,-3.6938,-3.6931,-3.6926,-3.6925,-3.6924,-3.6815,-3.6812,-3.6809,-3.6806,-3.6728,-3.6728,-3.6727,-3.6781,0,0,-3.6726,-3.6725,0,0,0,0,0,0,0,0,-3.7011,-3.7007,-3.6948,-3.6942,-3.6935,-3.6877,-3.6913,-3.6876,-3.6816,-3.6859,-3.6808,-3.6805,-3.678,-3.6775,-3.6766,-3.6777,-3.6773,-3.6725,-3.6725,-3.6725,-3.6725,0,0,0,0,0,0,0,-3.7014,-3.7009,-3.6973,-3.6948,-3.6939,-3.6911,-3.6901,-3.6905,-3.6836,-3.6855,-3.6847,-3.6839,-3.6775,-3.6767,-3.6764,-3.6772,-3.6725,-3.6725,-3.6725,-3.6724,-3.6817,-3.682,0,0,0,0,0,0,-3.7027,-3.7013,-3.6975,-3.697,-3.6967,-3.6912,-3.6902,-3.6898,-3.6836,-3.6824,-3.6842,-3.6834,-3.677,-3.6765,-3.6761,-3.6816,-3.6725,-3.6724,-3.6724,-3.6815,-3.6818,-3.6821,0,0,0,0,0,0,-3.7029,-3.7025,-3.6978,-3.6989,-3.6981,-3.6914,-3.6911,-3.6898,-3.689,-3.6826,-3.6813,-3.6846,-3.6767,-3.6761,-3.6775,-3.6812,-3.6724,-3.6724,-3.6811,-3.6816,-3.682,-3.693,0,0,0,0,0,0,-3.7031,-3.7026,-3.7047,-3.6991,-3.6981,-3.6996,-3.6914,-3.6899,-3.6889,-3.6879,-3.6827,-3.6815,-3.6765,-3.6777,-3.6775,-3.681,-3.6723,-3.6808,-3.6813,-3.6818,-3.6923,-3.6937,-3.695,0,0,0,0,0,-3.7033,-3.7082,-3.7049,-3.7045,-3.7006,-3.6999,-3.6993,-3.6934,-3.6893,-3.6912,-3.687,-3.6817,-3.6808,-3.6779,-3.6776,-3.6811,-3.6805,-3.6812,-3.6818,-3.6917,-3.6935,-3.695,0,0,0,0,0,0,-3.7145,-3.7073,-3.7036,-3.7068,-3.704,-3.698,-3.7003,-3.6956,-3.6939,-3.693,-3.6856,-3.6845,-3.6868,-3.6841,-3.681,-3.6857,-3.6798,-3.6804,-3.6875,-3.6891,-3.6904,-3.691,-3.6723,0,0,0,0,0,-3.7174,-3.7175,-3.7112,-3.7146,-3.7134,-3.7071,-3.7066,-3.7023,-3.6991,-3.6978,-3.6937,-3.6908,-3.6897,-3.6893,-3.688,-3.6918,-3.6903,-3.694,-3.6954,-3.6965,-3.6971,-3.6985,-3.7,-3.6842,-3.6842,-3.6842,0,0,-3.7233,-3.7193,-3.7199,-3.7168,-3.7141,-3.7142,-3.7062,-3.7068,-3.7067,-3.6979,-3.6989,-3.6958,-3.6919,-3.6945,-3.6954,-3.6923,-3.7011,-3.6973,-3.6983,-3.6982,-3.6993,-3.7008,-3.7022,-3.6846,-3.6845,-3.6845,0,0,-3.734,-3.7312,-3.7336,-3.731,-3.727,-3.7228,-3.7234,-3.718,-3.7155,-3.7165,-3.7097,-3.7095,-3.708,-3.7054,-3.7039,-3.7133,-3.7082,-3.7131,-3.7202,-3.7217,-3.7229,-3.724,-3.7271,-3.7284,-3.7137,-3.7138,-3.7138,0,-3.7419,-3.7419,-3.7355,-3.7363,-3.735,-3.727,-3.7292,-3.727,-3.7228,-3.722,-3.7186,-3.7163,-3.7132,-3.7148,-3.7171,-3.7162,-3.7164,-3.7137,-3.7233,-3.7243,-3.7252,-3.7281,-3.7293,-3.7144,-3.7143,-3.7142,-3.7142,0,-3.7516,-3.7517,-3.7541,-3.7502,-3.7491,-3.7507,-3.7444,-3.744,-3.7397,-3.7357,-3.7366,-3.7324,-3.7301,-3.7301,-3.726,-3.7311,-3.7292,-3.7247,-3.7186,-3.7274,-3.73,-3.7311,-3.7152,-3.715,-3.7148,-3.7147,0,0,-3.7694,-3.7617,-3.7627,-3.7607,-3.7555,-3.7554,-3.7564,-3.7541,-3.7539,-3.7511,-3.7517,-3.7504,-3.746,-3.7444,-3.7398,-3.7411,-3.7484,-3.7362,-3.736,-3.7385,-3.7534,-3.7569,-3.7583,-3.745,-3.7452,-3.7453,-3.7537,0,-3.7791,-3.7806,-3.7747,-3.7777,-3.7775,-3.7696,-3.7705,-3.7673,-3.7635,-3.7627,-3.7584,-3.7576,-3.752,-3.7509,-3.7518,-3.7474,-3.7513,-3.7467,-3.7452,-3.7452,-3.7464,-3.7597,-3.7634,-3.7715,-3.7547,-3.7549,-3.755,0,-3.7907,-3.7885,-3.7915,-3.7858,-3.7855,-3.7865,-3.7836,-3.783,-3.7791,-3.7762,-3.7741,-3.7688,-3.7691,-3.7633,-3.7635,-3.7605,-3.7595,-3.7572,-3.7573,-3.757,-3.7507,-3.7595,-3.774,-3.7752,-3.7565,-3.7564,-3.7563,0,-3.8032,-3.801,-3.8024,-3.8009,-3.7944,-3.7952,-3.7925,-3.7883,-3.7872,-3.7846,-3.7837,-3.7813,-3.78,-3.7781,-3.772,-3.7684,-3.7729,-3.7666,-3.7703,-3.7705,-3.7716,-3.7716,-3.7861,-3.7712,-3.7711,-3.7711,-3.7711,0,-3.8146,-3.8166,-3.8078,-3.8087,-3.8107,-3.8037,-3.8058,-3.8023,-3.7986,-3.7984,-3.7914,-3.7914,-3.7835,-3.7825,-3.7778,-3.7785,-3.778,-3.7755,-3.7742,-3.7761,-3.7764,-3.7754,-3.7746,-3.7714,-3.7714,-3.7713,-3.7713,0,-3.8289,-3.8231,-3.8241,-3.8178,-3.8162,-3.818,-3.8125,-3.8129,-3.8085,-3.8084,-3.808,-3.8012,-3.7996,-3.7933,-3.7903,-3.7871,-3.7893,-3.7868,-3.7907,-3.7898,-3.7938,-3.7934,-3.808,-3.8094,-3.7938,-3.7939,-3.794,0,-3.8365,-3.8379,-3.8317,-3.8312,-3.8288,-3.828,-3.8267,-3.8198,-3.8187,-3.8142,-3.8151,-3.8129,-3.8109,-3.8086,-3.8033,-3.8008,-3.7981,-3.8034,-3.7977,-3.7995,-3.798,-3.798,-3.7979,-3.8046,-3.8048,-3.805,-3.8051,0,-3.8506,-3.8476,-3.8462,-3.8436,-3.8423,-3.84,-3.8372,-3.837,-3.8293,-3.8284,-3.8267,-3.8251,-3.8219,-3.8197,-3.8163,-3.8132,-3.8078,-3.8069,-3.8076,-3.8096,-3.8117,-3.8104,-3.7939,-3.8067,-3.8065,-3.8064,-3.8063,-3.8063,-3.8617,-3.8625,-3.8582,-3.8567,-3.8538,-3.8513,-3.8513,-3.8469,-3.8454,-3.8423,-3.8382,-3.837,-3.8326,-3.8274,-3.8247,-3.8234,-3.8205,-3.8216,-3.8218,-3.8221,-3.823,-3.8119,-3.8228,-3.8228,-3.8227,-3.8227,-3.8226,0,-3.8753,-3.8721,-3.8708,-3.8671,-3.8658,-3.8608,-3.8574,-3.8566,-3.8556,-3.8521,-3.8501,-3.848,-3.8458,-3.8401,-3.8373,-3.8373,-3.8347,-3.8368,-3.8367,-3.836,-3.8259,-3.8255,-3.8389,-3.8389,-3.8389,-3.8389,-3.8389,-3.8389,-3.8823,-3.8832,-3.8796,-3.879,-3.8756,-3.8744,-3.8729,-3.8704,-3.8674,-3.8654,-3.8636,-3.8599,-3.8554,-3.8521,-3.8497,-3.8481,-3.8473,-3.8501,-3.8477,-3.8383,-3.8368,-3.8353,-3.8349,-3.8501,-3.8501,-3.8579,-3.858,-3.858]}]]